Flag for United Kingdom Weather past 2 weeks in London, England, United Kingdom

Now
70 °F

Broken clouds.


Feels Like: 70 °F
Forecast: 59 / 71 °F
Wind: 8 mph from Southwest

Location: Northolt

Current Time: Aug 29, 2015 at 1:49:17 PM

Latest Report: Aug 29, 2015 at 12:50 PM


Visibility: N/A

Pressure: 30.12 "Hg

Humidity: 53%

Dew point: 52 °F

Location of LondonLocation

Historic Weather in London — Graph

°F

London temperature yesterday

Maximum temperature yesterday: 68 °F (at 12:50 PM)
Minimum temperature yesterday: 48 °F (at 4:50 AM)
Average temperature yesterday: 60 °F

Past Weeks' High & Low Weather Summary

 TemperatureHumidityPressure
High86 °F (Aug 22, 1:50 PM)100% (Aug 14, 5:50 PM)30.12 "Hg (Aug 14, 5:50 PM)
Low48 °F (Aug 28, 4:50 AM)35% (Aug 17, 11:50 AM)29.42 "Hg (Aug 24, 12:50 PM)
Average63 °F77%29.88 "Hg
* Reported Aug 14 12:50 PM — Aug 29 12:50 PM, London, Weather by CustomWeather, © 2015

Note: Actual official high and low records may vary slightly from our data, if they occured in-between our weather recording intervals... More about our weather records

Advertising

London weather history for previous 24 hours

 ConditionsComfort  
Time TempWeatherWind HumidityBarometerVisibility
12:50 PM
Sat, Aug 29
70 °FBroken clouds.8 mph53%30.12 "HgN/A
11:50 AM68 °FPartly sunny.7 mph60%30.12 "HgN/A
10:50 AM66 °FBroken clouds.6 mph68%30.12 "HgN/A
9:50 AM64 °FBroken clouds.7 mph78%30.12 "HgN/A
7:50 AM59 °FSunny.3 mph88%30.12 "Hg10 mi
6:50 AM57 °FClear.2 mph94%30.12 "Hg10 mi
5:50 AM57 °FOvercast.5 mph94%30.12 "HgN/A
4:50 AM57 °FOvercast.5 mph88%30.12 "HgN/A
3:50 AM57 °FOvercast.5 mph88%30.12 "HgN/A
2:50 AM57 °FOvercast.5 mph88%30.09 "HgN/A
1:50 AM57 °FOvercast.6 mph88%30.09 "HgN/A
12:50 AM57 °FOvercast.5 mph88%30.09 "HgN/A
11:50 PM
Fri, Aug 28
59 °FOvercast.5 mph82%30.09 "HgN/A
10:50 PM59 °FPassing clouds.8 mph77%30.09 "HgN/A
9:50 PM61 °FClear.8 mph72%30.09 "Hg10 mi
8:50 PM61 °FSunny.9 mph72%30.07 "Hg10 mi
7:50 PM63 °FBroken clouds.9 mph64%30.07 "HgN/A
6:50 PM64 °FScattered clouds.10 mph56%30.04 "HgN/A
5:50 PM66 °FPassing clouds.13 mph56%30.04 "HgN/A
4:50 PM68 °FPassing clouds.10 mph53%30.04 "HgN/A
3:50 PM68 °FScattered clouds.9 mph53%30.04 "HgN/A
2:50 PM66 °FPartly sunny.14 mph52%30.04 "HgN/A
1:50 PM66 °FScattered clouds.14 mph52%30.01 "HgN/A
Weather by CustomWeather, © 2015

See weather overviewHow to use our weather pages